�������l�o���
Date,Time,MP-1(��Sv/h),MP-2(��Sv/h),MP-3(��Sv/h),MP-4(��Sv/h),MP-5(��Sv/h),MP-6(��Sv/h),MP-7(��Sv/h),MP-8(��Sv/h),����,����(m/s),���J
2022/10/19,00:00,0.555,0.797,0.516,0.996,0.702,0.330,0.580,0.545,-,-,��
2022/10/19,00:10,0.555,0.798,0.516,0.995,0.701,0.330,0.579,0.545,-,-,��
2022/10/19,00:20,0.554,0.799,0.515,0.999,0.701,0.331,0.579,0.546,-,-,��
2022/10/19,00:30,0.555,0.800,0.515,0.997,0.703,0.331,0.579,0.546,-,-,��
2022/10/19,00:40,0.554,0.796,0.516,0.998,0.703,0.331,0.581,0.547,-,-,��
2022/10/19,00:50,0.554,0.797,0.514,0.999,0.702,0.331,0.579,0.546,-,-,��
2022/10/19,01:00,0.553,0.801,0.517,0.996,0.701,0.331,0.580,0.546,-,-,��
2022/10/19,01:10,0.554,0.798,0.515,0.997,0.701,0.330,0.581,0.545,-,-,��
2022/10/19,01:20,0.553,0.799,0.515,0.996,0.702,0.332,0.580,0.546,-,-,��
2022/10/19,01:30,0.554,0.800,0.517,0.998,0.702,0.331,0.580,0.544,-,-,��
2022/10/19,01:40,0.554,0.797,0.516,0.998,0.702,0.331,0.580,0.547,-,-,��
2022/10/19,01:50,0.554,0.797,0.517,0.995,0.702,0.332,0.579,0.546,-,-,��
2022/10/19,02:00,0.554,0.800,0.514,0.997,0.702,0.331,0.578,0.546,-,-,��
2022/10/19,02:10,0.554,0.798,0.515,0.998,0.702,0.332,0.579,0.547,-,-,��
2022/10/19,02:20,0.552,0.800,0.514,0.997,0.704,0.331,0.580,0.546,-,-,��
2022/10/19,02:30,0.555,0.799,0.517,0.998,0.702,0.332,0.579,0.547,-,-,��
2022/10/19,02:40,0.555,0.799,0.517,0.997,0.700,0.331,0.577,0.546,-,-,��
2022/10/19,02:50,0.554,0.799,0.516,0.997,0.703,0.331,0.579,0.546,-,-,��
2022/10/19,03:00,0.554,0.799,0.515,0.998,0.702,0.332,0.580,0.547,-,-,��
2022/10/19,03:10,0.553,0.799,0.515,0.998,0.702,0.332,0.578,0.546,-,-,��
2022/10/19,03:20,0.553,0.801,0.515,1.000,0.702,0.330,0.579,0.547,-,-,��
2022/10/19,03:30,0.553,0.799,0.518,0.999,0.703,0.331,0.579,0.546,-,-,��
2022/10/19,03:40,0.553,0.798,0.516,0.999,0.702,0.332,0.578,0.546,-,-,��
2022/10/19,03:50,0.554,0.801,0.515,0.997,0.702,0.331,0.578,0.545,-,-,��
2022/10/19,04:00,0.554,0.799,0.515,0.997,0.703,0.331,0.579,0.546,-,-,��
2022/10/19,04:10,0.553,0.799,0.515,0.999,0.701,0.331,0.578,0.546,-,-,��
2022/10/19,04:20,0.555,0.801,0.516,0.997,0.704,0.331,0.579,0.545,-,-,��
2022/10/19,04:30,0.554,0.800,0.517,0.999,0.703,0.331,0.579,0.546,-,-,��
2022/10/19,04:40,0.552,0.799,0.516,0.998,0.701,0.331,0.580,0.546,-,-,��
2022/10/19,04:50,0.556,0.798,0.516,1.000,0.704,0.332,0.579,0.546,-,-,��
2022/10/19,05:00,0.554,0.798,0.516,1.000,0.703,0.331,0.577,0.546,-,-,��
2022/10/19,05:10,0.553,0.800,0.516,1.000,0.703,0.331,0.579,0.546,-,-,��
2022/10/19,05:20,0.553,0.800,0.516,0.998,0.703,0.331,0.579,0.546,-,-,��
2022/10/19,05:30,0.556,0.801,0.515,0.999,0.703,0.332,0.578,0.546,-,-,��
2022/10/19,05:40,0.555,0.799,0.516,0.997,0.701,0.332,0.579,0.546,-,-,��
2022/10/19,05:50,0.554,0.798,0.517,0.999,0.702,0.331,0.578,0.546,-,-,��
2022/10/19,06:00,0.553,0.801,0.516,0.998,0.704,0.332,0.579,0.547,-,-,��
2022/10/19,06:10,0.555,0.802,0.516,0.998,0.702,0.331,0.578,0.545,-,-,��
2022/10/19,06:20,0.553,0.800,0.517,0.996,0.703,0.331,0.578,0.546,-,-,��
2022/10/19,06:30,0.554,0.797,0.517,0.998,0.704,0.330,0.580,0.546,-,-,��
2022/10/19,06:40,0.554,0.800,0.515,0.998,0.703,0.332,0.577,0.547,-,-,��
2022/10/19,06:50,0.554,0.798,0.515,1.001,0.704,0.331,0.577,0.547,-,-,��
2022/10/19,07:00,0.554,0.800,0.517,1.001,0.702,0.333,0.578,0.545,-,-,��
2022/10/19,07:10,0.553,0.800,0.515,1.000,0.705,0.331,0.578,0.545,-,-,��
2022/10/19,07:20,0.555,0.799,0.516,0.998,0.705,0.332,0.579,0.546,-,-,��
2022/10/19,07:30,0.554,0.798,0.517,0.999,0.704,0.331,0.578,0.548,-,-,��
2022/10/19,07:40,0.553,0.799,0.517,0.998,0.703,0.331,0.579,0.546,-,-,��
2022/10/19,07:50,0.555,0.797,0.515,1.000,0.702,0.332,0.580,0.547,-,-,��
2022/10/19,08:00,0.554,0.800,0.516,0.998,0.704,0.332,0.580,0.546,-,-,��
2022/10/19,08:10,0.556,0.799,0.516,0.999,0.703,0.330,0.579,0.546,-,-,��
2022/10/19,08:20,0.555,0.799,0.515,0.998,0.702,0.332,0.578,0.548,-,-,��
2022/10/19,08:30,0.557,0.798,0.516,0.999,0.703,0.331,0.579,0.548,-,-,��
2022/10/19,08:40,0.556,0.798,0.516,1.000,0.703,0.332,0.577,0.547,-,-,��
2022/10/19,08:50,0.556,0.800,0.513,0.998,0.703,0.333,0.577,0.547,-,-,��
2022/10/19,09:00,0.556,0.796,0.514,0.997,0.704,0.332,0.578,0.547,-,-,��
2022/10/19,09:10,0.556,0.798,0.517,0.999,0.704,0.331,0.577,0.547,-,-,��
2022/10/19,09:20,0.555,0.797,0.517,1.000,0.704,0.333,0.577,0.546,-,-,��
2022/10/19,09:30,0.555,0.797,0.516,0.999,0.703,0.333,0.577,0.547,-,-,��
2022/10/19,09:40,0.554,0.797,0.517,1.002,0.703,0.332,0.577,0.547,-,-,��
2022/10/19,09:50,0.555,0.797,0.516,1.001,0.703,0.330,0.577,0.546,-,-,��
2022/10/19,10:00,0.553,0.798,0.515,0.999,0.701,0.331,0.577,0.547,-,-,��
2022/10/19,10:10,0.556,0.797,0.515,1.000,0.703,0.330,0.578,0.546,-,-,��
2022/10/19,10:20,0.557,0.798,0.515,1.000,0.703,0.330,0.577,0.545,-,-,��
2022/10/19,10:30,0.555,0.800,0.515,0.999,0.703,0.330,0.578,0.546,-,-,��
2022/10/19,10:40,0.557,0.799,0.517,1.001,0.704,0.329,0.578,0.545,-,-,��
2022/10/19,10:50,0.556,0.798,0.515,1.001,0.703,0.331,0.577,0.546,-,-,��
2022/10/19,11:00,0.555,0.798,0.516,1.001,0.704,0.330,0.577,0.546,-,-,��
2022/10/19,11:10,0.556,0.799,0.515,1.001,0.705,0.331,0.579,0.546,-,-,��
2022/10/19,11:20,0.556,0.800,0.517,1.000,0.705,0.329,0.577,0.546,-,-,��
2022/10/19,11:30,0.557,0.800,0.517,1.001,0.705,0.329,0.579,0.546,-,-,��
2022/10/19,11:40,0.555,0.800,0.519,1.000,0.703,0.330,0.578,0.547,-,-,��
2022/10/19,11:50,0.557,0.802,0.517,1.001,0.706,0.330,0.578,0.546,-,-,��
2022/10/19,12:00,0.558,0.802,0.517,1.001,0.706,0.332,0.578,0.547,-,-,��
2022/10/19,12:10,0.559,0.803,0.517,1.003,0.704,0.330,0.578,0.548,-,-,��
2022/10/19,12:20,0.556,0.801,0.517,1.001,0.705,0.333,0.577,0.546,-,-,��
2022/10/19,12:30,0.557,0.801,0.518,1.002,0.705,0.331,0.578,0.544,-,-,��
2022/10/19,12:40,0.558,0.802,0.518,1.002,0.707,0.332,0.579,0.547,-,-,��
2022/10/19,12:50,0.556,0.802,0.519,1.003,0.707,0.332,0.579,0.547,-,-,��
2022/10/19,13:00,0.557,0.802,0.518,1.002,0.706,0.332,0.577,0.547,-,-,��
2022/10/19,13:10,0.557,0.802,0.518,1.001,0.706,0.334,0.579,0.547,-,-,��
2022/10/19,13:20,0.557,0.802,0.518,1.003,0.707,0.333,0.579,0.547,-,-,��
2022/10/19,13:30,0.558,0.803,0.517,1.003,0.707,0.333,0.578,0.546,-,-,��
2022/10/19,13:40,0.557,0.802,0.518,1.002,0.705,0.330,0.579,0.546,-,-,��
2022/10/19,13:50,0.557,0.802,0.518,1.001,0.706,0.331,0.579,0.546,-,-,��
2022/10/19,14:00,0.557,0.800,0.517,1.003,0.708,0.330,0.578,0.546,-,-,��
2022/10/19,14:10,0.556,0.801,0.517,1.003,0.707,0.332,0.578,0.547,-,-,��
2022/10/19,14:20,0.557,0.802,0.518,1.002,0.707,0.332,0.579,0.548,-,-,��
2022/10/19,14:30,0.557,0.803,0.518,1.003,0.706,0.331,0.580,0.547,-,-,��
2022/10/19,14:40,0.556,0.802,0.518,1.002,0.704,0.332,0.579,0.546,-,-,��
2022/10/19,14:50,0.557,0.802,0.517,1.003,0.709,0.333,0.579,0.546,-,-,��
2022/10/19,15:00,0.556,0.803,0.518,1.005,0.709,0.333,0.579,0.547,-,-,��
2022/10/19,15:10,0.557,0.803,0.517,1.004,0.709,0.333,0.578,0.548,-,-,��
2022/10/19,15:20,0.556,0.804,0.518,1.003,0.707,0.333,0.578,0.546,-,-,��
2022/10/19,15:30,0.556,0.804,0.517,1.004,0.708,0.333,0.579,0.547,-,-,��
2022/10/19,15:40,0.556,0.805,0.518,1.001,0.706,0.331,0.579,0.548,-,-,��
2022/10/19,15:50,0.556,0.803,0.519,1.004,0.707,0.333,0.582,0.549,-,-,��
2022/10/19,16:00,0.555,0.806,0.518,1.003,0.709,0.333,0.580,0.549,-,-,��
2022/10/19,16:10,0.554,0.806,0.520,1.002,0.709,0.333,0.581,0.549,-,-,��
2022/10/19,16:20,0.557,0.804,0.519,1.003,0.708,0.333,0.581,0.550,-,-,��
2022/10/19,16:30,0.557,0.808,0.520,1.004,0.709,0.333,0.578,0.549,-,-,��
2022/10/19,16:40,0.557,0.807,0.522,1.003,0.708,0.332,0.581,0.549,-,-,��
2022/10/19,16:50,0.558,0.808,0.521,1.002,0.708,0.333,0.580,0.548,-,-,��
2022/10/19,17:00,0.557,0.806,0.521,1.004,0.709,0.333,0.582,0.547,-,-,��
2022/10/19,17:10,0.559,0.807,0.520,1.005,0.709,0.334,0.580,0.549,-,-,��
2022/10/19,17:20,0.558,0.807,0.520,1.005,0.711,0.332,0.581,0.548,-,-,��
2022/10/19,17:30,0.558,0.806,0.519,1.001,0.710,0.332,0.581,0.548,-,-,��
2022/10/19,17:40,0.557,0.805,0.519,1.005,0.710,0.334,0.579,0.548,-,-,��
2022/10/19,17:50,0.557,0.807,0.519,1.003,0.708,0.332,0.582,0.548,-,-,��
2022/10/19,18:00,0.558,0.806,0.519,1.005,0.709,0.332,0.581,0.549,-,-,��
2022/10/19,18:10,0.557,0.806,0.521,1.004,0.708,0.333,0.580,0.548,-,-,��
2022/10/19,18:20,0.557,0.807,0.519,1.006,0.710,0.332,0.582,0.546,-,-,��
2022/10/19,18:30,0.557,0.807,0.519,1.004,0.709,0.332,0.581,0.549,-,-,��
2022/10/19,18:40,0.557,0.807,0.518,1.004,0.708,0.332,0.581,0.549,-,-,��
2022/10/19,18:50,0.558,0.806,0.519,1.004,0.710,0.331,0.581,0.549,-,-,��
2022/10/19,19:00,0.556,0.808,0.519,1.003,0.709,0.331,0.581,0.548,-,-,��
2022/10/19,19:10,0.558,0.808,0.519,1.004,0.711,0.330,0.582,0.546,-,-,��
2022/10/19,19:20,0.557,0.807,0.520,1.004,0.709,0.332,0.581,0.547,-,-,��
2022/10/19,19:30,0.558,0.805,0.519,1.003,0.709,0.332,0.583,0.548,-,-,��
2022/10/19,19:40,0.556,0.806,0.521,1.003,0.707,0.332,0.581,0.548,-,-,��
2022/10/19,19:50,0.556,0.805,0.520,1.006,0.709,0.332,0.581,0.548,-,-,��
2022/10/19,20:00,0.560,0.808,0.519,1.004,0.709,0.332,0.581,0.547,-,-,��
2022/10/19,20:10,0.557,0.806,0.521,1.005,0.711,0.333,0.581,0.549,-,-,��
2022/10/19,20:20,0.557,0.807,0.521,1.004,0.709,0.333,0.582,0.547,-,-,��
2022/10/19,20:30,0.557,0.807,0.519,1.005,0.711,0.332,0.582,0.547,-,-,��
2022/10/19,20:40,0.558,0.806,0.519,1.004,0.710,0.331,0.582,0.547,-,-,��
2022/10/19,20:50,0.559,0.806,0.520,1.005,0.710,0.332,0.582,0.549,-,-,��
2022/10/19,21:00,0.556,0.806,0.520,1.003,0.709,0.332,0.580,0.548,-,-,��
2022/10/19,21:10,0.558,0.804,0.520,1.004,0.709,0.331,0.581,0.549,-,-,��
2022/10/19,21:20,0.558,0.808,0.521,1.002,0.709,0.331,0.580,0.548,-,-,��
2022/10/19,21:30,0.558,0.804,0.519,1.007,0.710,0.332,0.580,0.549,-,-,��
2022/10/19,21:40,0.556,0.806,0.518,1.005,0.709,0.331,0.579,0.549,-,-,��
2022/10/19,21:50,0.558,0.807,0.520,1.004,0.709,0.333,0.581,0.548,-,-,��
2022/10/19,22:00,0.558,0.807,0.520,1.005,0.709,0.332,0.581,0.549,-,-,��
2022/10/19,22:10,0.557,0.807,0.520,1.005,0.712,0.332,0.581,0.549,-,-,��
2022/10/19,22:20,0.558,0.806,0.521,1.003,0.709,0.332,0.582,0.549,-,-,��
2022/10/19,22:30,0.555,0.807,0.519,1.004,0.709,0.332,0.580,0.550,-,-,��
2022/10/19,22:40,0.560,0.805,0.519,1.004,0.710,0.332,0.582,0.548,-,-,��
2022/10/19,22:50,0.559,0.805,0.519,1.005,0.709,0.331,0.580,0.549,-,-,��
2022/10/19,23:00,0.555,0.806,0.519,1.006,0.709,0.332,0.581,0.549,-,-,��
2022/10/19,23:10,0.558,0.805,0.519,1.005,0.710,0.332,0.582,0.548,-,-,��
2022/10/19,23:20,0.557,0.805,0.520,1.005,0.709,0.332,0.580,0.549,-,-,��
2022/10/19,23:30,0.558,0.805,0.521,1.006,0.710,0.330,0.580,0.548,-,-,��
2022/10/19,23:40,0.556,0.806,0.520,1.004,0.710,0.332,0.582,0.548,-,-,��
2022/10/19,23:50,0.558,0.807,0.519,1.006,0.709,0.331,0.580,0.549,-,-,��
